QPF
0.00 0.00 0.00 0.00 0.00 0.00 0.00 0.00 0.00 0.00 0.00 0.00 0.00 0.00 0.00 0.00 0.00 0.00 0.00 0.00 0.00 0.00 0.00 0.01 0.02 0.05 0.08 0.07 0.03 0.03 0.02 0.01 0.02 0.03 0.02 0.09 0.08 0.05 0.04 0.03 0.01 0.00 0.04
0.00 0.00 0.00 0.00 0.00 0.00 0.00 0.00 0.00 0.00 0.00 0.00 0.00 0.00 0.00 0.00 0.00 0.00 0.00 0.00 0.00 0.01 0.01 0.00 0.02 0.04 0.05 0.06 0.04 0.04 0.02 0.02 0.03 0.02 0.02 0.07 0.09 0.05 0.09 0.06 0.00 0.00 0.00
0.00 0.00 0.00 0.00 0.00 0.00 0.00 0.00 0.00 0.00 0.00 0.00 0.00 0.00 0.00 0.00 0.00 0.00 0.00 0.00 0.00 0.01 0.02 0.01 0.03 0.04 0.05 0.06 0.07 0.07 0.04 0.02 0.02 0.02 0.03 0.06 0.15 0.15 0.28 0.14 0.02 0.02 0.01
0.00 0.00 0.00 0.00 0.00 0.00 0.00 0.00 0.00 0.00 0.00 0.00 0.00 0.00 0.00 0.00 0.00 0.00 0.00 0.00 0.00 0.00 0.01 0.01 0.04 0.05 0.06 0.06 0.08 0.11 0.05 0.03 0.03 0.03 0.03 0.06 0.15 0.21 0.41 0.33 0.11 0.08 0.03
0.00 0.00 0.00 0.00 0.00 0.00 0.00 0.00 0.00 0.00 0.00 0.00 0.00 0.00 0.00 0.00 0.00 0.00 0.00 0.00 0.00 0.00 0.00 0.01 0.05 0.04 0.03 0.05 0.05 0.08 0.08 0.05 0.04 0.03 0.02 0.06 0.13 0.17 0.37 0.41 0.16 0.12 0.09
0.00 0.00 0.00 0.00 0.00 0.00 0.00 0.00 0.00 0.00 0.00 0.00 0.00 0.00 0.00 0.00 0.00 0.00 0.00 0.00 0.00 0.00 0.00 0.01 0.01 0.03 0.02 0.02 0.04 0.08 0.11 0.07 0.04 0.04 0.04 0.04 0.08 0.11 0.19 0.31 0.19 0.13 0.12
0.00 0.00 0.00 0.00 0.00 0.00 0.00 0.00 0.00 0.00 0.00 0.00 0.00 0.00 0.00 0.00 0.00 0.00 0.00 0.00 0.00 0.00 0.00 0.00 0.01 0.01 0.01 0.01 0.01 0.03 0.07 0.11 0.12 0.07 0.05 0.03 0.06 0.10 0.11 0.18 0.16 0.13 0.09
0.00 0.00 0.00 0.00 0.00 0.00 0.00 0.00 0.00 0.00 0.00 0.00 0.00 0.00 0.00 0.00 0.00 0.00 0.00 0.00 0.00 0.00 0.00 0.00 0.00 0.01 0.01 0.00 0.00 0.02 0.06 0.08 0.12 0.08 0.06 0.06 0.09 0.13 0.12 0.15 0.15 0.08 0.07
0.00 0.00 0.00 0.00 0.00 0.00 0.00 0.00 0.00 0.00 0.00 0.00 0.00 0.00 0.00 0.00 0.00 0.00 0.00 0.00 0.00 0.00 0.00 0.00 0.00 0.00 0.00 0.00 0.00 0.01 0.03 0.08 0.09 0.08 0.08 0.08 0.09 0.12 0.14 0.11 0.12 0.05 0.04
0.00 0.00 0.00 0.00 0.00 0.00 0.00 0.00 0.00 0.00 0.00 0.00 0.00 0.00 0.00 0.00 0.00 0.00 0.00 0.00 0.00 0.00 0.00 0.00 0.00 0.00 0.00 0.00 0.00 0.00 0.02 0.06 0.06 0.04 0.04 0.04 0.03 0.06 0.11 0.08 0.05 0.02 0.02
0.00 0.00 0.00 0.00 0.00 0.00 0.00 0.00 0.00 0.00 0.00 0.00 0.00 0.00 0.00 0.00 0.00 0.00 0.00 0.00 0.00 0.00 0.00 0.00 0.00 0.00 0.00 0.00 0.00 0.01 0.03 0.02 0.01 0.02 0.03 0.02 0.01 0.03 0.06 0.06 0.03 0.03 0.03
0.00 0.00 0.00 0.00 0.00 0.00 0.00 0.00 0.00 0.00 0.00 0.00 0.00 0.00 0.00 0.00 0.00 0.00 0.00 0.00 0.00 0.00 0.00 0.00 0.00 0.00 0.00 0.00 0.00 0.00 0.00 0.00 0.00 0.00 0.01 0.01 0.01 0.03 0.06 0.04 0.04 0.07 0.10
0.00 0.00 0.00 0.00 0.00 0.00 0.00 0.00 0.00 0.00 0.00 0.00 0.00 0.00 0.00 0.00 0.00 0.00 0.00 0.00 0.00 0.00 0.00 0.00 0.00 0.00 0.00 0.00 0.00 0.00 0.00 0.00 0.00 0.00 0.00 0.00 0.01 0.02 0.01 0.01 0.01 0.03 0.07
0.00 0.00 0.00 0.00 0.00 0.00 0.00 0.00 0.00 0.00 0.00 0.00 0.00 0.00 0.00 0.00 0.00 0.00 0.00 0.00 0.00 0.00 0.00 0.00 0.00 0.00 0.00 0.00 0.00 0.00 0.00 0.00 0.00 0.00 0.00 0.00 0.00 0.00 0.00 0.00 0.00 0.00 0.02
0.00 0.00 0.00 0.00 0.00 0.00 0.00 0.00 0.00 0.00 0.00 0.00 0.00 0.00 0.00 0.00 0.00 0.00 0.00 0.00 0.00 0.00 0.00 0.00 0.00 0.00 0.00 0.00 0.00 0.00 0.00 0.00 0.00 0.00 0.00 0.00 0.00 0.00 0.00 0.00 0.00 0.00 0.00
0.00 0.00 0.00 0.00 0.00 0.00 0.00 0.00 0.00 0.00 0.00 0.00 0.00 0.00 0.00 0.00 0.00 0.00 0.00 0.00 0.00 0.00 0.00 0.00 0.00 0.00 0.00 0.00 0.00 0.00 0.00 0.00 0.00 0.00 0.00 0.00 0.00 0.00 0.00 0.00 0.00 0.00 0.00
0.00 0.00 0.00 0.00 0.00 0.00 0.00 0.00 0.00 0.00 0.00 0.00 0.00 0.00 0.00 0.00 0.00 0.00 0.00 0.00 0.00 0.00 0.00 0.00 0.00 0.00 0.00 0.00 0.00 0.00 0.00 0.00 0.00 0.00 0.00 0.00 0.00 0.00 0.00 0.00 0.00 0.00 0.00
0.00 0.00 0.00 0.00 0.00 0.00 0.00 0.00 0.00 0.00 0.00 0.00 0.00 0.00 0.00 0.00 0.00 0.00 0.00 0.00 0.00 0.00 0.00 0.00 0.00 0.00 0.00 0.00 0.00 0.00 0.00 0.00 0.00 0.00 0.00 0.00 0.00 0.00 0.00 0.00 0.00 0.00 0.00
0.00 0.00 0.00 0.00 0.00 0.00 0.00 0.00 0.00 0.00 0.00 0.00 0.00 0.00 0.00 0.00 0.00 0.00 0.00 0.00 0.00 0.00 0.00 0.00 0.00 0.00 0.00 0.00 0.00 0.00 0.00 0.00 0.00 0.00 0.00 0.00 0.00 0.00 0.00 0.00 0.00 0.00 0.00
0.00 0.00 0.00 0.00 0.00 0.00 0.00 0.00 0.00 0.00 0.00 0.00 0.00 0.00 0.00 0.00 0.00 0.00 0.00 0.00 0.00 0.00 0.00 0.00 0.00 0.00 0.00 0.00 0.00 0.00 0.00 0.00 0.00 0.00 0.00 0.00 0.00 0.00 0.00 0.00 0.00 0.00 0.00
0.00 0.00 0.00 0.00 0.00 0.00 0.00 0.00 0.00 0.00 0.00 0.00 0.00 0.00 0.00 0.00 0.00 0.00 0.00 0.00 0.00 0.00 0.00 0.00 0.00 0.00 0.00 0.00 0.00 0.00 0.00 0.00 0.00 0.00 0.00 0.00 0.00 0.00 0.00 0.00 0.00 0.00 0.00
0.00 0.00 0.00 0.00 0.00 0.00 0.00 0.00 0.00 0.00 0.00 0.00 0.00 0.00 0.00 0.00 0.00 0.00 0.00 0.00 0.00 0.00 0.00 0.00 0.00 0.00 0.00 0.00 0.00 0.00 0.00 0.00 0.00 0.00 0.00 0.00 0.00 0.00 0.00 0.00 0.00 0.00 0.00
0.00 0.00 0.00 0.00 0.00 0.00 0.00 0.00 0.00 0.00 0.00 0.00 0.00 0.00 0.00 0.00 0.00 0.00 0.00 0.00 0.00 0.00 0.00 0.00 0.00 0.00 0.00 0.00 0.00 0.00 0.00 0.00 0.00 0.00 0.00 0.00 0.00 0.00 0.00 0.00 0.00 0.00 0.00
0.00 0.00 0.00 0.00 0.00 0.00 0.00 0.00 0.00 0.00 0.00 0.00 0.00 0.00 0.00 0.00 0.00 0.00 0.00 0.00 0.00 0.00 0.00 0.00 0.00 0.00 0.00 0.00 0.00 0.00 0.00 0.00 0.00 0.00 0.00 0.00 0.00 0.00 0.00 0.00 0.00 0.00 0.00
0.00 0.00 0.00 0.00 0.00 0.00 0.00 0.00 0.00 0.00 0.00 0.00 0.00 0.00 0.00 0.00 0.00 0.00 0.00 0.00 0.00 0.00 0.00 0.00 0.00 0.00 0.00 0.00 0.00 0.00 0.00 0.00 0.00 0.00 0.00 0.00 0.00 0.00 0.00 0.00 0.00 0.00 0.00
0.00 0.00 0.00 0.00 0.00 0.00 0.00 0.00 0.00 0.00 0.00 0.00 0.00 0.00 0.00 0.00 0.00 0.00 0.00 0.00 0.00 0.00 0.00 0.00 0.00 0.00 0.00 0.00 0.00 0.00 0.00 0.00 0.00 0.00 0.00 0.00 0.00 0.00 0.00 0.00 0.00 0.00 0.00
MSLP
1028.85 1028.64 1028.51 1028.33 1028.23 1028.01 1027.86 1027.62 1027.28 1026.98 1026.63 1026.09 1025.47 1024.77 1023.92 1023.10 1022.26 1021.55 1020.85 1020.30 1019.51 1018.65 1017.51 1016.46 1015.22 1013.80 1012.57 1011.41 1010.65 1010.25 1009.67 1009.16 1008.64 1007.93 1007.54 1007.02 1007.31 1007.72 1008.75 1008.75 1009.32 1009.99 1011.21
1028.96 1028.84 1028.70 1028.62 1028.50 1028.37 1028.18 1027.86 1027.62 1027.36 1026.95 1026.59 1026.03 1025.35 1024.55 1023.62 1022.80 1022.13 1021.40 1020.86 1020.15 1019.16 1018.13 1016.89 1015.74 1014.46 1013.38 1012.12 1011.16 1010.44 1009.78 1009.34 1009.20 1008.52 1008.10 1007.64 1007.61 1008.10 1007.73 1007.71 1008.70 1009.56 1010.79
1029.02 1028.98 1028.90 1028.89 1028.82 1028.78 1028.54 1028.23 1027.97 1027.72 1027.53 1027.19 1026.58 1025.90 1025.11 1024.16 1023.27 1022.65 1022.17 1021.52 1020.74 1019.89 1018.87 1017.81 1016.55 1015.29 1014.03 1012.98 1011.88 1011.09 1010.46 1009.83 1009.17 1008.99 1009.14 1008.57 1008.32 1008.60 1007.58 1006.69 1008.06 1009.31 1010.50
1029.17 1029.09 1029.18 1029.18 1029.21 1029.10 1028.87 1028.62 1028.39 1028.12 1028.03 1027.75 1027.15 1026.56 1025.74 1024.74 1023.74 1023.16 1022.73 1022.16 1021.35 1020.49 1019.58 1018.50 1017.48 1016.48 1015.34 1014.19 1013.20 1012.24 1011.58 1010.78 1010.39 1009.80 1010.16 1009.64 1009.65 1009.60 1008.96 1007.74 1008.39 1009.45 1011.02
1029.31 1029.29 1029.42 1029.45 1029.46 1029.36 1029.18 1029.03 1028.86 1028.73 1028.56 1028.38 1027.79 1027.08 1026.30 1025.30 1024.50 1023.83 1023.42 1022.92 1022.09 1021.17 1020.29 1019.35 1018.52 1017.56 1016.63 1015.59 1014.32 1013.52 1012.70 1012.25 1011.76 1011.44 1011.16 1010.77 1010.69 1010.94 1010.79 1010.11 1009.27 1010.32 1012.24
1029.45 1029.53 1029.58 1029.70 1029.77 1029.68 1029.54 1029.50 1029.46 1029.35 1029.18 1028.97 1028.43 1027.82 1027.05 1026.19 1025.41 1024.69 1024.19 1023.75 1023.00 1021.99 1021.27 1020.38 1019.46 1018.48 1017.59 1016.68 1015.85 1015.01 1014.50 1013.52 1013.21 1013.05 1012.98 1013.11 1013.30 1013.27 1011.87 1010.59 1010.54 1011.20 1013.38
1029.60 1029.70 1029.90 1030.04 1030.09 1030.08 1030.03 1029.94 1029.94 1029.87 1029.69 1029.43 1029.11 1028.51 1027.86 1027.11 1026.23 1025.64 1024.97 1024.64 1024.07 1023.32 1022.38 1021.54 1020.67 1019.78 1018.84 1018.03 1017.22 1016.40 1015.62 1015.20 1015.33 1015.08 1015.06 1014.45 1014.66 1013.57 1012.63 1011.47 1011.78 1012.72 1014.32
1029.85 1030.02 1030.25 1030.39 1030.49 1030.59 1030.50 1030.46 1030.52 1030.50 1030.37 1030.18 1029.92 1029.43 1028.76 1027.89 1027.08 1026.48 1025.86 1025.40 1025.01 1024.47 1023.70 1022.92 1021.99 1021.16 1020.20 1019.39 1018.51 1017.83 1017.37 1016.84 1016.62 1016.43 1016.27 1016.17 1014.99 1014.03 1013.35 1013.32 1013.47 1014.19 1015.43
1030.10 1030.36 1030.63 1030.79 1030.98 1031.06 1031.13 1031.17 1031.18 1031.18 1031.07 1030.86 1030.64 1030.25 1029.59 1028.98 1027.81 1027.23 1026.75 1026.09 1025.56 1025.18 1024.74 1023.80 1023.01 1022.22 1021.55 1020.63 1019.85 1019.36 1018.85 1018.52 1018.06 1017.65 1017.14 1016.35 1015.24 1014.87 1014.89 1014.41 1014.85 1015.04 1016.09
1030.29 1030.63 1030.92 1031.20 1031.45 1031.60 1031.74 1031.86 1031.90 1031.85 1031.85 1031.63 1031.31 1031.01 1030.42 1029.87 1028.93 1027.88 1027.58 1027.20 1026.50 1026.11 1025.75 1025.26 1024.50 1023.80 1022.76 1021.88 1021.21 1020.87 1019.88 1020.27 1019.46 1018.54 1017.41 1016.69 1016.50 1016.56 1016.49 1016.71 1016.98 1016.89 1017.37
1030.41 1030.81 1031.28 1031.65 1031.94 1032.15 1032.34 1032.45 1032.47 1032.46 1032.45 1032.37 1032.05 1031.75 1031.33 1030.70 1030.03 1028.96 1028.30 1028.12 1027.80 1027.32 1026.85 1026.29 1025.94 1025.08 1024.19 1023.26 1022.78 1022.21 1022.28 1021.89 1021.28 1020.42 1019.82 1019.43 1019.11 1018.75 1018.83 1018.98 1019.32 1019.15 1019.08
1030.54 1031.07 1031.63 1032.13 1032.53 1032.81 1032.88 1033.03 1033.06 1033.06 1033.06 1033.09 1032.90 1032.50 1032.04 1031.54 1030.74 1030.06 1029.28 1028.96 1028.84 1028.50 1028.23 1027.87 1027.27 1026.26 1025.50 1024.86 1024.39 1024.10 1023.47 1023.00 1022.72 1022.23 1021.93 1021.89 1021.55 1021.39 1021.22 1020.97 1020.85 1020.91 1020.94
1030.76 1031.51 1032.21 1032.80 1033.07 1033.23 1033.35 1033.57 1033.74 1033.75 1033.80 1033.87 1033.69 1033.45 1033.01 1032.37 1031.69 1030.91 1030.37 1029.95 1029.68 1029.54 1029.31 1028.90 1028.33 1027.69 1027.00 1026.42 1025.85 1025.27 1024.81 1024.92 1024.31 1023.91 1024.49 1024.55 1024.19 1023.97 1023.33 1022.85 1022.55 1022.48 1022.46
1031.09 1032.02 1032.57 1032.93 1033.64 1033.77 1033.88 1034.09 1034.28 1034.47 1034.49 1034.52 1034.52 1034.35 1033.94 1033.11 1032.40 1031.89 1031.57 1031.17 1030.67 1030.43 1030.26 1030.09 1029.67 1029.01 1028.31 1028.08 1027.56 1027.28 1027.01 1026.74 1026.13 1026.62 1026.89 1026.28 1025.74 1024.86 1024.54 1024.45 1024.18 1023.97 1023.54
1031.10 1031.94 1032.75 1033.41 1033.67 1034.04 1034.57 1034.93 1035.11 1035.28 1035.23 1035.11 1035.10 1034.74 1034.28 1033.65 1033.09 1032.73 1032.30 1032.04 1031.97 1031.62 1031.22 1030.81 1030.21 1029.87 1029.90 1029.94 1029.64 1029.29 1028.93 1028.64 1028.27 1028.09 1027.78 1027.41 1026.99 1026.32 1026.29 1026.18 1025.79 1025.57 1025.37
1031.11 1031.96 1032.83 1033.36 1033.90 1034.57 1035.05 1035.36 1035.12 1035.10 1034.96 1034.93 1034.95 1034.96 1034.70 1033.86 1033.47 1033.31 1033.03 1032.79 1032.61 1032.45 1032.21 1032.31 1032.42 1032.24 1032.01 1031.86 1031.51 1031.18 1030.67 1030.16 1029.92 1029.42 1029.29 1028.88 1028.57 1028.60 1028.52 1028.14 1027.58 1027.12 1027.46
1030.83 1031.80 1032.68 1033.42 1034.02 1034.66 1034.96 1035.06 1035.37 1035.55 1035.35 1035.32 1035.23 1034.93 1034.58 1034.25 1034.12 1033.97 1033.85 1033.67 1033.37 1033.08 1033.25 1033.69 1033.61 1033.55 1033.52 1033.43 1033.13 1032.85 1032.50 1032.05 1031.53 1031.08 1030.77 1030.47 1030.35 1030.12 1029.65 1029.41 1029.46 1029.33 1029.13
1030.61 1031.30 1032.06 1032.90 1033.59 1034.27 1034.54 1034.90 1035.28 1035.66 1035.96 1036.07 1035.39 1035.15 1034.92 1034.74 1034.57 1034.41 1034.45 1034.54 1034.54 1034.48 1034.48 1034.56 1034.79 1034.99 1034.90 1034.74 1034.58 1034.43 1034.16 1033.69 1033.13 1032.95 1032.60 1032.48 1032.09 1031.88 1031.61 1031.55 1031.42 1031.24 1030.89
1030.33 1031.00 1031.59 1032.32 1033.02 1033.60 1034.17 1034.74 1035.06 1035.31 1035.78 1035.81 1035.76 1035.64 1035.49 1035.16 1035.20 1035.17 1035.15 1035.28 1035.55 1035.70 1035.82 1035.81 1035.74 1035.62 1035.59 1035.71 1035.81 1035.58 1035.39 1035.12 1034.69 1034.21 1034.00 1033.75 1033.41 1033.15 1033.13 1033.11 1032.91 1032.54 1032.17
1030.12 1030.76 1031.53 1032.28 1033.02 1033.53 1034.02 1034.40 1034.85 1035.30 1035.60 1035.70 1035.88 1035.81 1035.97 1035.92 1036.13 1036.26 1036.23 1036.18 1036.21 1036.38 1036.54 1036.64 1036.70 1036.73 1036.66 1036.53 1036.38 1036.20 1035.73 1035.73 1035.65 1035.35 1035.17 1034.97 1034.66 1034.47 1034.43 1034.34 1034.17 1033.80 1033.59
1030.11 1030.90 1031.35 1032.04 1032.57 1033.02 1033.58 1034.18 1034.68 1035.11 1035.52 1035.92 1035.92 1036.05 1036.05 1036.31 1036.66 1036.74 1036.76 1036.72 1036.66 1036.75 1036.89 1036.91 1037.10 1037.15 1037.14 1037.16 1036.99 1036.91 1037.06 1037.36 1036.77 1036.38 1036.08 1035.96 1036.07 1035.51 1035.37 1035.27 1035.12 1034.85 1034.69
1029.91 1030.61 1031.29 1031.77 1032.29 1032.86 1033.38 1033.83 1034.34 1034.84 1035.32 1035.77 1035.92 1036.35 1036.30 1036.47 1036.47 1036.60 1036.81 1037.25 1037.10 1036.83 1036.86 1036.95 1037.08 1037.10 1037.13 1037.18 1037.31 1037.63 1037.66 1037.91 1037.88 1037.48 1036.88 1036.75 1036.58 1036.29 1036.34 1036.20 1036.09 1036.01 1035.87
1029.59 1030.31 1030.96 1031.50 1031.98 1032.56 1033.14 1033.49 1034.02 1034.34 1034.83 1035.19 1035.44 1035.96 1036.25 1036.12 1036.16 1036.38 1036.64 1037.03 1036.78 1036.88 1036.97 1037.04 1037.18 1037.30 1037.19 1037.18 1037.18 1037.33 1037.63 1037.93 1037.67 1037.72 1037.76 1037.79 1037.53 1037.41 1037.09 1037.06 1036.89 1036.91 1036.85
1029.15 1029.87 1030.46 1031.02 1031.55 1032.02 1032.41 1032.92 1033.33 1033.74 1034.27 1034.62 1035.01 1035.45 1035.64 1035.82 1036.09 1036.09 1036.30 1036.72 1036.68 1036.93 1036.84 1036.91 1037.08 1037.24 1037.36 1037.56 1037.46 1037.49 1037.57 1037.70 1037.66 1037.66 1037.65 1037.78 1037.88 1037.85 1037.85 1037.75 1037.82 1037.93 1038.05
1028.53 1029.25 1029.80 1030.30 1030.76 1031.28 1031.86 1032.33 1032.78 1033.03 1033.44 1033.86 1034.47 1034.86 1034.98 1035.29 1035.68 1035.76 1035.91 1035.96 1036.13 1036.43 1036.42 1036.72 1036.77 1036.76 1036.91 1037.13 1037.30 1037.38 1037.54 1037.69 1037.72 1037.70 1037.69 1037.65 1037.83 1037.91 1037.96 1037.97 1038.17 1038.28 1038.22
1027.89 1028.48 1028.99 1029.59 1030.10 1030.58 1031.01 1031.52 1031.84 1032.18 1032.62 1033.02 1033.48 1033.83 1034.17 1034.47 1034.61 1034.95 1035.14 1035.34 1035.59 1035.89 1036.11 1036.22 1036.28 1036.38 1036.55 1036.71 1036.86 1037.06 1037.34 1037.49 1037.64 1037.69 1037.72 1037.67 1037.93 1038.06 1038.12 1038.15 1038.36 1038.40 1038.39
Thickness
5449 5442 5432 5422 5411 5400 5388 5378 5368 5357 5345 5333 5326 5323 5322 5321 5321 5321 5321 5320 5321 5323 5330 5339 5351 5364 5379 5402 5426 5446 5467 5485 5504 5525 5542 5555 5567 5576 5575 5586 5596 5605 5608
5447 5439 5430 5419 5408 5397 5387 5378 5368 5357 5346 5334 5325 5322 5321 5322 5322 5321 5322 5322 5322 5326 5333 5344 5355 5368 5383 5408 5431 5451 5471 5489 5502 5521 5537 5551 5565 5571 5585 5596 5605 5609 5612
5446 5437 5427 5417 5406 5396 5387 5378 5368 5357 5346 5334 5325 5322 5321 5322 5323 5323 5322 5323 5324 5327 5334 5344 5358 5371 5390 5411 5433 5452 5471 5488 5502 5520 5530 5545 5562 5569 5589 5615 5614 5612 5611
5444 5435 5425 5415 5405 5395 5387 5378 5367 5358 5347 5336 5327 5321 5320 5322 5324 5325 5324 5325 5327 5330 5336 5346 5358 5372 5390 5410 5430 5450 5468 5485 5498 5515 5525 5541 5552 5564 5580 5604 5609 5609 5606
5442 5434 5424 5415 5406 5397 5387 5378 5368 5358 5348 5337 5328 5321 5321 5321 5323 5324 5324 5326 5330 5333 5338 5347 5357 5373 5389 5407 5428 5445 5463 5477 5490 5506 5519 5534 5543 5553 5564 5579 5603 5602 5592
5441 5433 5425 5416 5406 5397 5388 5378 5368 5358 5349 5338 5330 5323 5319 5320 5321 5323 5324 5325 5330 5336 5339 5347 5359 5375 5391 5408 5424 5440 5453 5471 5483 5498 5506 5516 5525 5535 5555 5576 5590 5603 5591
5440 5433 5424 5416 5407 5397 5388 5379 5369 5360 5351 5342 5333 5325 5319 5318 5320 5321 5324 5325 5329 5333 5339 5347 5358 5373 5389 5404 5420 5434 5450 5462 5467 5484 5495 5508 5515 5534 5551 5573 5580 5581 5576
5439 5432 5424 5416 5407 5397 5388 5379 5370 5360 5352 5343 5335 5328 5321 5318 5319 5321 5324 5325 5328 5332 5337 5344 5355 5369 5385 5398 5414 5427 5438 5452 5460 5474 5486 5495 5513 5530 5546 5555 5561 5564 5563
5439 5431 5423 5416 5406 5397 5388 5379 5370 5361 5352 5345 5338 5330 5325 5320 5320 5321 5324 5327 5330 5334 5338 5346 5355 5366 5378 5392 5406 5418 5430 5440 5450 5464 5480 5494 5511 5523 5530 5544 5548 5556 5558
5440 5432 5424 5415 5406 5397 5388 5379 5370 5362 5354 5347 5340 5334 5328 5324 5323 5323 5324 5326 5331 5334 5337 5342 5351 5358 5371 5385 5398 5408 5424 5427 5442 5459 5477 5491 5499 5508 5518 5523 5530 5540 5543
5441 5434 5425 5415 5406 5397 5389 5380 5372 5364 5356 5347 5342 5337 5332 5329 5326 5325 5324 5325 5328 5332 5335 5341 5347 5355 5365 5378 5388 5401 5407 5416 5429 5446 5459 5470 5479 5490 5496 5503 5507 5517 5525
5443 5435 5425 5415 5406 5397 5390 5382 5375 5367 5359 5350 5344 5340 5337 5333 5330 5329 5328 5326 5326 5329 5333 5336 5342 5352 5361 5370 5380 5388 5399 5408 5419 5434 5443 5451 5460 5469 5477 5485 5492 5498 5506
5444 5434 5423 5414 5406 5399 5392 5384 5376 5370 5361 5353 5347 5342 5339 5337 5335 5333 5331 5330 5328 5327 5329 5334 5339 5346 5355 5363 5371 5380 5390 5393 5407 5420 5422 5429 5439 5447 5457 5467 5475 5480 5487
5444 5432 5424 5417 5406 5399 5394 5387 5379 5371 5365 5357 5349 5343 5340 5340 5339 5339 5336 5335 5333 5331 5330 5331 5335 5342 5350 5354 5362 5368 5374 5380 5392 5396 5400 5412 5423 5436 5444 5451 5459 5466 5475
5447 5437 5427 5417 5411 5403 5394 5385 5378 5370 5364 5358 5351 5347 5342 5340 5341 5340 5339 5338 5335 5334 5334 5334 5338 5342 5343 5345 5349 5356 5362 5368 5376 5382 5391 5400 5409 5421 5427 5433 5441 5449 5455
5451 5441 5429 5422 5413 5403 5393 5385 5380 5376 5371 5365 5359 5352 5349 5348 5346 5343 5342 5341 5338 5336 5334 5332 5330 5331 5333 5336 5341 5345 5351 5358 5364 5372 5377 5385 5393 5398 5403 5411 5421 5430 5432
5455 5445 5435 5425 5416 5406 5399 5394 5384 5379 5374 5368 5363 5360 5357 5354 5350 5346 5343 5343 5342 5342 5338 5333 5332 5331 5329 5329 5332 5336 5340 5346 5350 5357 5364 5370 5375 5381 5388 5393 5397 5402 5409
5460 5452 5443 5432 5423 5414 5407 5399 5391 5383 5375 5369 5370 5367 5362 5359 5356 5353 5349 5346 5341 5338 5338 5337 5332 5329 5328 5327 5327 5327 5329 5334 5340 5343 5347 5350 5356 5360 5365 5368 5372 5377 5383
5465 5457 5450 5441 5431 5423 5415 5405 5398 5392 5385 5378 5374 5370 5366 5363 5360 5357 5353 5349 5344 5340 5337 5334 5332 5332 5330 5327 5324 5326 5326 5326 5329 5333 5337 5340 5343 5346 5347 5349 5352 5357 5361
5468 5461 5452 5444 5434 5427 5419 5412 5405 5397 5391 5386 5380 5375 5370 5365 5359 5355 5353 5350 5347 5343 5339 5336 5332 5328 5326 5327 5329 5330 5330 5328 5327 5328 5328 5329 5332 5334 5333 5334 5336 5339 5341
5469 5461 5455 5447 5440 5433 5425 5417 5409 5402 5396 5388 5383 5379 5374 5367 5361 5357 5355 5352 5349 5346 5342 5339 5335 5333 5330 5327 5324 5324 5322 5317 5320 5322 5322 5321 5321 5323 5322 5322 5321 5324 5324
5472 5464 5457 5451 5444 5435 5428 5421 5414 5406 5399 5393 5387 5383 5379 5373 5369 5365 5360 5355 5351 5348 5345 5342 5339 5336 5333 5331 5328 5325 5323 5319 5317 5316 5318 5315 5314 5314 5311 5310 5309 5307 5306
5474 5467 5460 5453 5446 5438 5430 5424 5417 5412 5404 5399 5395 5388 5382 5379 5375 5370 5365 5360 5356 5352 5347 5344 5341 5337 5335 5332 5329 5325 5321 5317 5316 5313 5311 5307 5303 5302 5300 5298 5296 5293 5291
5476 5469 5463 5456 5448 5442 5436 5429 5423 5416 5409 5404 5397 5392 5387 5383 5378 5375 5370 5365 5361 5356 5352 5348 5342 5338 5333 5329 5325 5321 5318 5314 5311 5308 5305 5300 5294 5290 5286 5284 5279 5275 5271
5479 5472 5465 5459 5453 5447 5439 5433 5426 5421 5415 5409 5401 5395 5391 5386 5381 5377 5373 5370 5364 5359 5355 5349 5344 5339 5335 5329 5324 5319 5313 5308 5304 5299 5295 5291 5286 5283 5278 5273 5268 5264 5260
5481 5475 5469 5462 5456 5449 5443 5436 5431 5425 5419 5413 5406 5401 5395 5389 5384 5380 5376 5371 5366 5360 5353 5348 5343 5338 5332 5326 5320 5314 5308 5303 5297 5291 5286 5281 5276 5272 5267 5262 5258 5253 5249